Theta_e
352 352 349 348 350 355 352 344 319 327 324 313 315 318 314 329 328 322 323 329 322 334 335 332 332 335 330 327 329 331 332 328 330 313 312 334 347 352 355 354 354 354 355 358 360 360 360 363 364 363 364 364 364 364 364 364 363 362 363 362 363 363 363 363 363 363 363 363 362 362 363 363 364 363 362 362 362 363 363 363 363 362 363 363 362 363 362 363 364 363 363 362 362 363 363 362 363
346 341 343 347 347 349 335 341 323 320 320 314 315 321 321 326 324 320 321 326 327 329 330 331 333 334 333 333 333 333 331 335 337 335 340 346 351 353 354 354 352 351 354 358 359 359 360 362 364 363 364 364 363 363 363 362 362 361 361 362 362 362 363 363 362 363 363 363 362 361 362 362 362 362 362 362 362 363 363 362 361 360 361 363 363 362 361 361 360 361 363 362 362 363 363 362 362
340 340 339 350 356 349 343 339 316 317 313 309 314 318 325 320 320 323 327 326 328 328 330 332 334 333 331 332 328 328 324 338 339 342 341 348 340 343 354 352 351 352 355 357 358 359 359 362 364 364 364 364 363 362 362 362 361 361 361 361 362 362 362 363 362 362 363 362 362 361 361 361 362 363 363 363 362 362 363 362 362 361 362 362 363 363 362 362 361 362 362 362 363 362 362 363 363
339 338 340 345 337 348 329 327 321 317 311 314 314 320 324 320 321 326 328 330 330 330 331 329 328 335 330 326 329 335 332 333 340 341 339 342 342 345 350 351 354 354 355 357 357 358 360 362 363 363 363 363 363 363 362 361 361 360 360 361 361 362 362 362 362 362 363 362 362 362 362 362 362 362 362 361 361 361 362 362 362 362 363 361 360 362 362 363 362 361 361 361 361 361 362 362 363
338 342 352 352 339 328 328 324 322 320 312 316 313 324 326 322 323 325 329 332 331 329 330 329 328 335 334 331 333 327 329 338 340 344 342 346 350 350 353 355 355 355 354 355 357 359 360 363 363 362 362 362 362 362 361 360 360 360 360 360 360 360 361 362 361 361 361 361 362 362 362 362 362 362 362 362 361 361 361 362 362 361 361 362 363 362 361 362 362 361 361 361 361 362 362 363 363
339 345 358 352 333 343 333 320 318 317 322 326 320 321 325 323 325 328 330 331 335 333 331 330 323 323 325 328 334 330 337 330 339 342 344 344 350 354 355 357 354 354 353 355 358 359 360 364 363 363 362 363 362 361 361 361 361 360 359 359 360 360 360 360 361 360 361 360 362 362 362 361 361 361 361 361 360 361 361 361 361 361 362 363 363 362 362 361 362 362 361 361 361 361 362 363 363
341 349 349 345 340 338 320 318 317 320 323 328 325 326 322 325 328 328 327 331 333 329 331 328 330 328 324 331 335 339 343 343 340 342 346 348 350 353 355 354 352 351 354 356 358 359 361 363 363 363 363 363 363 361 360 361 361 361 361 361 361 360 360 360 360 361 361 361 361 361 362 361 361 360 360 360 361 361 361 361 361 361 362 363 363 363 361 362 362 362 361 361 361 362 362 362 363
357 346 340 329 325 328 319 320 319 324 325 330 333 328 325 330 329 327 327 328 325 324 328 331 331 328 325 336 326 338 343 345 345 348 348 349 349 350 353 352 350 351 354 357 360 361 365 363 362 363 363 363 362 362 361 361 361 361 360 361 360 360 360 360 361 360 361 361 361 361 360 361 361 361 360 360 361 361 361 361 361 361 361 362 363 362 362 362 362 362 362 361 361 362 362 363 363
351 345 345 329 320 325 321 319 320 329 329 330 332 332 335 332 332 331 330 330 330 328 327 329 330 324 326 330 328 336 341 345 347 351 349 349 348 350 351 352 353 353 356 358 360 359 360 363 363 363 362 362 362 362 362 361 360 361 361 361 361 360 360 360 360 360 361 361 361 360 360 360 361 361 361 360 360 360 361 361 361 361 361 362 362 362 362 363 362 362 362 361 361 362 362 361 360
345 343 328 326 324 316 319 319 320 325 329 333 332 331 331 334 333 334 330 330 327 328 329 333 333 327 330 326 330 335 338 345 347 347 348 347 347 349 351 353 355 355 356 356 357 360 360 365 363 363 362 362 362 362 362 361 360 360 360 360 360 360 360 360 361 360 361 361 361 360 360 361 361 361 361 360 360 360 361 361 361 361 362 363 362 362 362 362 362 361 361 361 361 361 361 360 359
335 344 341 324 319 317 316 317 322 326 328 333 332 335 335 334 334 333 334 328 331 327 330 333 328 328 330 329 330 341 344 345 344 342 345 345 347 348 349 353 354 355 354 356 358 360 360 360 364 362 361 362 362 361 361 361 360 360 360 360 360 361 360 360 360 360 361 361 361 361 361 360 361 361 361 361 361 361 361 361 361 361 361 362 362 363 362 362 362 362 361 361 361 361 361 360 359
330 332 332 318 317 317 319 319 321 324 330 333 330 338 333 336 333 329 329 327 327 328 328 332 327 332 327 327 329 338 342 342 342 344 345 347 348 351 352 354 355 356 357 358 359 358 359 359 359 362 363 363 362 361 360 360 360 360 360 361 361 361 360 359 361 361 360 360 360 360 361 361 361 361 360 360 360 361 361 361 361 360 360 361 363 363 363 362 362 362 361 362 361 361 360 360 359
332 332 326 321 319 320 323 322 321 325 326 329 332 336 339 339 331 332 334 331 328 326 328 333 334 333 324 326 333 338 338 341 344 345 347 348 350 351 352 354 356 357 358 359 357 357 357 357 358 358 360 361 360 360 360 361 360 360 360 360 361 361 361 361 360 360 360 360 361 361 361 362 361 360 359 360 360 360 361 362 361 361 362 363 363 363 363 362 362 361 362 361 361 360 359 358 358
336 333 330 320 329 323 321 321 323 320 321 330 333 339 340 338 337 338 334 331 330 327 332 335 334 333 327 329 331 333 337 341 342 346 348 348 350 351 352 353 355 356 357 357 355 356 355 356 356 356 356 356 357 360 361 361 361 362 361 361 362 361 362 361 360 359 360 362 362 361 362 362 362 360 358 359 360 360 361 361 361 362 363 363 363 363 363 362 362 362 361 362 362 360 359 358 358
337 342 332 324 323 324 324 318 321 322 321 331 334 338 337 341 337 338 337 330 329 334 336 339 335 330 322 326 326 332 337 340 345 348 349 350 350 351 351 352 353 354 355 356 355 354 354 355 356 356 356 355 356 357 357 360 361 362 362 362 362 362 361 361 360 360 362 363 364 363 363 362 361 361 360 359 360 360 360 360 361 362 363 362 362 363 363 363 362 363 363 362 363 361 360 359 359
342 338 331 320 320 320 322 322 327 324 323 332 336 341 336 338 339 337 338 341 335 344 338 328 337 331 331 330 332 337 339 340 344 346 348 348 349 350 351 350 350 351 351 353 353 354 355 355 355 355 355 356 356 356 356 357 360 362 362 362 362 363 362 361 362 361 361 362 364 364 364 359 359 358 361 358 361 362 361 359 362 361 361 361 361 363 364 364 364 363 363 363 362 361 360 360 360
344 339 322 321 318 321 322 322 326 319 329 333 337 337 333 332 342 345 351 348 334 332 334 333 332 337 333 334 338 340 340 346 350 348 347 346 346 346 348 349 349 349 352 353 355 354 356 356 356 355 356 356 357 357 357 357 359 362 361 361 362 362 361 362 364 362 362 359 360 361 361 355 354 354 354 355 361 360 361 361 360 361 361 361 363 363 363 363 363 363 363 363 363 363 363 362 362
340 326 321 319 322 321 328 326 330 333 327 331 334 337 334 330 337 344 348 340 340 338 333 333 335 336 338 339 341 341 340 344 346 345 344 344 345 344 344 346 346 344 346 349 352 356 357 355 355 355 356 357 357 358 359 359 359 360 357 358 358 359 361 362 359 357 362 359 361 358 358 359 356 356 357 361 359 360 359 362 361 362 362 362 363 363 363 363 363 363 363 363 363 363 364 361 363
328 327 325 318 326 328 334 333 335 331 330 334 336 339 335 333 337 341 334 334 333 334 329 332 332 334 337 339 340 338 338 339 342 344 343 343 343 343 343 344 344 345 346 347 348 353 355 357 356 356 357 357 356 357 358 359 358 357 357 358 359 362 361 361 358 360 358 358 358 359 361 358 358 359 359 361 362 362 362 363 363 364 364 364 364 364 363 363 363 364 363 364 364 364 362 360 359
334 329 322 324 330 331 337 334 332 338 337 334 335 338 339 338 342 347 333 330 333 328 325 329 329 330 333 336 338 336 336 336 339 342 343 343 344 344 344 344 344 345 347 347 347 353 355 356 358 357 357 356 355 355 357 357 357 357 356 356 356 357 358 360 358 358 359 359 360 358 357 358 359 358 364 365 364 361 362 364 364 364 364 364 364 363 364 365 364 364 366 365 368 367 362 361 361
337 330 324 327 333 330 336 340 337 339 338 336 336 339 333 339 341 342 334 329 328 327 331 329 328 330 333 335 336 335 335 335 335 339 342 343 343 345 345 346 346 346 348 350 351 351 353 356 357 357 358 358 357 357 356 356 357 356 356 356 355 356 357 358 358 359 359 359 359 357 358 359 359 358 358 358 357 358 357 357 358 357 357 356 363 358 359 361 362 360 362 365 362 361 361 360 359
335 328 332 332 334 331 337 339 342 338 341 337 336 333 333 343 341 340 336 324 321 327 331 333 333 333 334 334 335 335 334 333 334 336 340 342 342 343 346 347 348 347 349 346 347 350 352 355 357 358 359 359 358 356 356 359 358 355 356 356 356 357 358 357 357 357 358 358 357 357 358 357 357 356 357 356 356 356 356 355 357 356 356 357 363 359 360 359 358 358 358 359 358 360 360 358 355
323 330 332 333 332 333 337 340 340 340 337 334 333 337 340 338 337 340 337 335 331 335 335 335 335 335 336 336 335 333 332 332 334 336 338 341 342 343 345 347 346 345 347 346 348 349 352 354 355 357 357 358 358 358 358 358 355 356 356 357 356 356 356 357 356 356 356 356 355 356 355 355 356 356 356 354 355 356 354 354 356 356 357 357 360 358 358 360 360 359 357 357 356 356 354 351 350
331 324 332 334 337 337 341 340 342 338 337 334 339 342 337 336 331 339 336 336 334 335 336 336 336 337 337 334 333 331 331 332 334 336 339 342 342 343 345 345 347 347 346 347 348 350 353 354 354 353 354 355 355 358 357 356 356 357 356 361 357 358 359 356 357 358 358 361 354 355 357 355 355 353 352 352 354 355 355 355 355 356 357 358 360 359 358 359 359 359 357 357 356 355 353 347 346
331 328 333 334 338 340 342 341 341 340 340 341 341 336 336 338 335 339 334 340 334 335 336 336 336 335 335 333 332 331 331 332 333 335 338 342 345 345 345 346 346 346 345 347 349 350 352 353 353 352 353 354 354 356 356 357 359 355 358 356 353 362 356 354 356 358 358 356 354 356 356 353 352 352 352 353 353 355 355 357 356 358 359 358 359 358 358 354 356 356 355 354 355 354 352 343 342
331 331 334 338 336 339 339 340 338 338 338 339 337 333 336 340 342 337 339 339 335 335 335 334 334 333 333 333 332 331 330 331 332 335 337 339 344 343 343 344 345 345 346 350 350 351 352 352 352 351 353 353 352 354 352 353 356 355 357 358 356 361 357 357 356 354 355 356 356 355 354 351 351 352 352 354 355 357 357 358 358 356 356 360 358 356 357 353 353 352 355 356 354 355 349 348 354
336 334 336 333 336 337 337 333 334 336 336 337 333 331 335 338 339 324 336 344 334 333 332 333 332 332 333 332 331 330 330 330 331 334 337 338 340 341 343 344 344 345 348 349 349 349 353 353 351 354 355 356 354 352 350 352 355 352 354 355 357 354 355 359 353 353 353 353 353 356 360 355 352 352 353 354 356 355 356 355 356 357 354 356 357 358 359 356 353 353 355 354 356 356 352 349 354
337 337 334 333 335 333 335 335 333 337 334 337 335 332 335 336 337 327 334 339 334 331 331 331 331 331 331 330 329 330 329 330 331 335 335 336 336 339 340 341 343 346 347 347 347 349 352 351 352 354 356 357 355 351 353 351 350 352 354 354 352 352 356 356 352 354 357 358 361 362 364 353 354 351 353 354 356 356 358 356 355 356 357 361 362 362 363 364 359 360 359 358 359 357 355 353 353
337 336 326 327 330 329 332 329 332 334 332 339 335 329 328 331 327 332 336 341 333 330 329 329 329 330 329 329 329 328 328 330 331 332 336 337 338 340 340 343 345 345 347 349 348 349 350 351 351 352 354 355 352 352 352 350 351 354 354 352 351 354 355 351 353 357 358 362 362 361 361 361 360 357 357 359 364 353 355 355 355 357 359 362 366 366 362 363 360 359 359 361 357 359 354 351 353
338 335 327 324 324 324 330 332 331 331 335 338 336 314 318 327 334 335 337 338 332 329 327 328 328 328 328 328 327 327 329 329 330 332 335 336 338 340 340 343 346 345 345 347 349 348 350 352 352 352 352 352 352 352 352 352 352 353 353 352 355 353 350 352 355 357 361 360 362 362 362 364 363 363 361 359 356 357 359 358 359 360 362 364 365 366 360 361 359 359 359 358 361 357 351 351 348
325 331 330 319 319 317 329 329 331 328 335 337 334 314 316 327 332 335 339 337 329 325 326 326 327 327 327 327 326 327 328 329 332 334 336 337 339 340 341 343 344 345 346 346 347 348 350 350 351 350 352 351 355 352 354 351 351 352 351 351 353 349 350 351 353 355 356 359 361 360 361 364 364 365 366 364 357 356 354 354 357 359 363 367 365 365 360 362 363 357 361 357 356 353 352 353 351
328 319 314 320 319 320 326 331 331 325 328 335 331 316 317 326 329 334 338 334 329 324 324 325 326 326 327 327 326 327 327 329 333 335 336 338 339 340 342 342 344 345 345 345 347 348 348 349 351 349 351 349 350 353 351 349 349 349 351 361 350 349 349 350 351 353 355 358 361 362 364 365 365 366 368 370 359 354 354 358 360 360 364 366 363 364 364 359 359 362 361 359 350 352 353 347 346
324 317 312 315 319 318 320 325 330 331 329 331 327 318 321 324 330 335 337 334 329 324 324 324 325 326 327 326 326 327 327 328 330 333 335 337 339 341 342 342 343 344 346 345 345 346 346 349 352 348 348 349 352 355 355 353 350 352 352 349 348 348 347 348 349 351 354 356 358 359 363 367 364 366 370 371 366 362 358 357 362 363 367 362 361 360 359 364 358 354 354 359 357 353 352 351 344
315 319 315 320 316 317 316 325 329 330 330 325 330 324 323 326 329 333 336 333 330 324 324 324 324 325 326 326 326 326 326 326 326 329 334 337 339 341 342 347 345 346 346 345 345 345 346 349 348 349 351 355 357 355 354 355 354 352 351 354 359 347 347 349 349 351 352 356 358 359 363 364 366 366 366 367 366 361 358 356 360 363 364 364 364 362 361 359 359 358 355 356 359 355 353 351 341
311 313 313 315 320 320 318 317 324 326 327 326 326 324 324 326 329 331 333 335 331 324 324 324 324 325 325 326 326 326 326 325 326 328 336 338 339 341 342 344 345 345 345 345 345 346 347 348 351 354 352 355 357 357 359 356 355 356 352 351 352 350 352 356 352 353 355 356 359 362 362 365 368 366 367 366 362 364 361 363 362 363 368 366 366 360 360 363 363 359 357 355 358 356 355 354 343
317 318 316 317 315 317 319 324 330 328 323 320 322 319 322 325 327 329 330 334 330 325 325 324 324 325 325 325 326 326 326 326 328 329 337 339 340 340 341 343 344 344 345 346 347 346 349 351 351 353 354 356 358 359 360 355 355 354 347 350 351 352 354 358 359 356 356 357 360 362 363 362 367 366 366 366 365 363 359 363 364 366 367 359 354 356 357 355 359 360 356 360 357 355 355 355 349
322 321 319 317 318 318 323 327 330 333 325 319 321 325 324 325 327 328 329 331 329 325 325 324 324 324 325 325 325 325 325 326 328 330 336 338 340 341 341 342 343 344 346 347 347 349 349 351 352 351 354 356 356 355 356 353 354 354 349 350 350 352 352 355 357 356 356 357 359 361 363 363 365 366 365 366 366 370 365 366 361 362 362 362 362 360 357 356 361 361 361 361 358 354 353 348 350
319 318 316 316 317 314 322 323 329 331 324 320 324 324 322 325 328 329 330 329 327 325 324 324 323 324 325 324 324 325 327 328 329 329 335 339 340 341 342 342 346 343 344 345 347 348 349 352 352 352 355 355 355 355 358 357 357 355 354 354 352 353 354 351 353 355 355 360 361 362 362 363 365 367 369 369 369 367 365 365 363 363 366 360 362 365 365 370 364 356 363 355 359 357 351 351 348
321 318 317 315 317 322 323 325 328 326 323 319 321 321 321 319 324 329 329 329 328 327 329 326 324 323 323 325 324 325 326 326 327 328 333 338 340 341 341 341 343 344 344 344 348 348 348 350 351 353 354 354 355 358 358 354 354 355 354 356 354 354 359 358 354 361 360 360 361 363 363 363 365 365 368 369 368 366 362 363 365 364 365 368 360 361 360 361 363 361 359 355 354 355 354 356 349
317 317 314 311 318 315 311 321 324 326 323 319 319 317 321 325 327 327 328 328 330 333 334 337 330 323 323 325 324 325 325 326 326 327 330 336 338 340 340 341 342 343 344 344 347 348 349 351 351 352 353 354 355 360 360 357 358 358 356 357 358 358 354 359 357 358 359 358 360 364 363 364 366 365 366 367 366 365 367 364 364 365 365 365 363 360 361 360 361 361 358 360 359 349 351 350 352
317 318 317 315 318 320 319 317 323 325 326 323 318 318 317 322 320 323 326 331 331 331 328 333 333 332 329 327 327 327 326 326 326 327 328 332 336 339 340 342 343 343 344 344 347 348 350 352 352 352 353 356 358 362 358 359 361 359 360 360 362 359 359 355 353 354 355 359 360 361 362 364 365 363 364 365 368 366 365 362 362 363 367 364 363 361 361 363 360 356 359 362 356 352 349 350 354
313 316 319 320 320 320 320 321 319 316 314 321 319 307 308 319 320 321 324 327 327 330 329 330 330 334 329 326 327 327 332 329 327 327 328 331 335 338 340 342 342 343 344 345 347 349 350 352 354 354 357 357 359 360 359 359 359 356 354 350 350 351 350 351 349 349 352 355 357 360 361 363 364 363 363 364 367 367 365 362 363 366 368 368 368 366 363 361 360 356 357 360 357 358 353 351 351
311 312 321 323 322 321 319 318 318 309 307 316 323 309 304 317 316 319 323 324 326 330 327 330 332 334 335 329 327 326 330 328 329 328 329 330 332 337 340 341 343 343 345 347 346 348 350 352 354 357 356 356 360 361 361 361 357 357 355 352 353 352 348 354 359 353 354 358 357 356 358 360 363 361 363 364 366 367 367 366 366 364 367 365 369 364 360 358 358 359 363 362 360 363 357 349 350
307 319 324 324 323 320 320 319 319 315 323 323 322 320 307 306 316 323 324 323 324 326 328 329 331 332 333 333 328 327 329 328 329 328 329 330 331 336 339 341 343 344 345 347 346 348 349 352 354 356 357 358 359 362 362 361 358 356 354 353 357 353 356 356 359 358 360 360 358 356 357 360 364 368 365 366 366 369 368 366 367 366 366 365 365 363 362 363 361 363 369 363 365 366 363 352 351
313 319 323 323 324 322 320 319 318 319 316 308 315 320 310 307 318 327 326 320 321 323 327 328 330 331 333 335 331 327 330 328 330 328 329 330 330 333 339 340 344 345 345 345 345 350 351 353 355 356 356 357 359 361 361 362 361 358 356 355 355 356 358 358 360 362 357 360 359 361 358 361 361 365 366 367 365 367 372 366 365 366 364 364 365 368 361 362 360 362 362 363 362 364 362 364 355
314 322 325 326 325 323 321 319 318 317 312 305 311 318 307 307 318 320 324 322 319 321 326 329 329 331 332 333 335 329 330 329 330 330 329 331 331 332 338 341 343 344 345 347 347 352 352 353 354 355 355 356 359 360 360 362 362 360 356 356 353 354 361 361 359 358 358 357 358 358 360 360 361 362 364 365 362 365 366 368 365 365 363 365 368 362 360 358 359 361 364 360 366 363 363 358 359
318 325 320 320 321 319 319 318 316 311 303 307 314 317 315 303 312 316 316 318 323 324 326 330 331 332 333 333 334 335 330 331 330 331 330 333 333 333 338 339 341 343 344 346 349 352 352 353 354 353 356 357 358 359 359 360 359 357 358 356 354 355 357 357 357 359 361 360 355 358 360 361 364 361 361 363 364 365 364 366 362 363 365 372 368 364 363 357 357 361 363 364 364 365 361 359 359
314 316 317 312 308 315 313 312 314 303 301 309 316 316 315 302 309 318 323 329 330 326 325 329 330 331 332 333 334 336 333 332 331 331 331 333 334 334 337 337 339 340 343 343 349 352 352 353 353 352 355 356 357 359 359 360 359 358 360 358 355 357 356 356 355 355 360 357 359 359 360 361 359 361 365 361 360 361 364 364 365 365 367 364 367 367 363 362 362 362 366 367 363 364 366 366 362
311 307 310 304 301 303 300 306 301 301 300 310 316 317 310 308 319 321 324 326 329 330 330 331 331 331 332 333 334 335 335 332 331 331 332 333 334 335 335 336 337 339 340 342 349 351 352 353 353 352 353 355 356 357 357 358 359 359 361 358 356 359 357 357 356 356 360 358 358 361 359 357 357 358 358 358 357 357 361 362 365 363 364 368 365 367 369 365 363 365 365 362 364 361 361 363 362
307 304 302 299 297 296 294 299 304 303 309 315 315 319 308 316 315 324 324 327 329 330 332 335 334 332 332 333 334 335 336 333 332 333 333 333 334 335 336 336 338 339 340 343 349 351 352 353 353 352 353 355 355 356 356 356 359 360 361 360 359 361 358 359 358 358 360 359 357 359 361 360 355 354 357 358 365 362 364 367 369 368 370 369 367 366 367 368 366 365 363 363 361 361 365 363 361
304 309 305 301 301 298 294 297 295 301 303 309 316 309 306 307 313 324 325 328 330 332 333 334 336 335 334 336 337 337 336 335 334 334 334 334 335 336 337 337 339 340 340 343 348 349 352 352 354 353 353 355 355 355 355 355 358 360 360 359 359 359 357 358 359 359 358 359 358 360 359 360 356 358 357 360 367 361 363 364 366 365 366 366 366 365 369 367 368 365 370 365 362 365 365 364 361
306 307 308 303 300 309 299 304 303 303 304 305 309 308 316 315 325 325 329 329 329 332 332 333 334 335 336 336 336 337 336 336 336 335 334 334 335 337 338 339 341 339 340 342 347 350 351 352 354 354 355 356 355 355 354 356 356 359 358 357 357 359 360 358 360 363 361 359 357 358 359 360 362 361 360 361 361 363 361 363 366 364 365 365 367 364 364 363 365 361 365 365 360 367 363 363 357
303 305 299 303 313 311 307 308 308 308 305 302 311 309 317 327 322 325 327 327 327 328 330 331 332 333 334 334 336 337 337 336 336 335 334 334 336 337 339 339 340 340 341 345 348 350 351 352 354 354 355 356 356 356 354 355 355 358 357 358 359 359 360 357 356 359 361 358 358 358 359 359 360 359 362 364 362 362 360 364 363 364 364 365 364 363 364 367 363 365 365 361 360 360 364 365 365
306 299 303 310 314 312 306 299 304 302 296 302 309 306 310 312 305 325 326 324 325 326 327 330 332 333 332 333 335 336 337 338 338 337 336 335 337 337 340 341 340 341 341 345 349 350 352 354 355 354 355 354 356 356 356 355 355 357 358 358 360 359 360 359 357 358 357 357 358 357 360 358 354 360 359 361 360 362 360 371 362 364 364 365 364 363 364 365 365 364 364 364 362 365 362 364 366
306 304 312 303 298 299 309 303 295 295 296 298 303 307 310 311 310 316 319 320 322 325 328 329 330 331 332 332 334 337 339 338 337 339 337 336 337 338 340 340 340 341 343 347 348 351 353 354 356 355 355 355 356 356 356 357 357 357 358 358 359 358 357 356 356 357 357 357 356 354 356 358 356 356 359 361 359 359 361 363 361 363 363 364 364 361 362 365 364 361 362 364 364 363 360 361 360
310 311 306 309 305 304 302 306 307 304 299 298 299 305 302 313 313 317 318 321 323 326 326 327 331 332 332 333 335 337 338 338 337 342 344 340 339 340 340 340 340 341 343 348 348 352 352 354 355 355 355 355 354 354 354 355 357 356 356 357 359 357 356 356 355 355 355 355 356 355 354 357 355 357 358 358 356 359 358 361 360 361 362 363 363 362 364 364 364 360 359 364 362 361 361 359 360
300 301 300 304 306 309 309 308 304 303 300 298 297 298 304 312 320 319 320 323 325 325 326 329 331 333 334 335 336 337 339 339 338 340 341 340 339 343 344 343 344 346 348 348 349 351 352 353 354 354 353 354 353 352 353 354 356 354 356 354 355 356 355 355 355 355 353 353 354 357 353 354 356 357 355 355 356 356 357 359 358 358 360 359 362 360 362 362 361 360 361 362 362 360 360 360 362
301 299 298 300 300 300 296 296 307 306 302 295 299 296 305 316 332 326 324 326 327 330 330 329 330 334 335 336 337 336 336 338 338 342 340 340 344 347 344 343 344 344 346 347 347 349 350 351 352 352 354 353 351 350 353 353 354 354 354 354 354 355 355 355 354 354 353 353 353 354 354 353 354 355 354 356 358 355 356 358 357 358 356 358 360 361 362 363 361 361 362 365 362 360 360 360 359
Wind_Speed
3 4 4 4 2 2 1 0 1 1 1 3 1 2 1 3 6 6 6 2 2 1 3 9 9 5 4 8 13 13 16 3 2 5 5 3 7 10 8 10 12 10 9 6 4 4 4 7 10 12 12 11 11 11 11 11 11 11 12 12 12 12 13 13 13 13 14 13 13 14 13 13 12 13 14 14 16 16 15 14 15 14 14 14 14 15 15 16 14 13 12 12 13 13 14 15 15
1 3 5 5 3 2 1 1 1 1 2 3 3 2 3 3 3 5 6 3 0 3 10 10 12 13 13 11 7 17 17 12 8 10 7 9 9 4 12 12 13 12 8 7 6 5 4 5 11 12 12 12 12 12 11 12 11 11 12 12 12 12 12 13 13 13 13 13 14 14 13 13 13 13 14 15 16 16 15 14 13 14 13 13 13 13 14 14 15 14 13 12 12 13 14 14 14
3 4 4 5 2 0 1 1 2 1 2 2 0 5 4 3 3 4 4 5 6 9 9 7 8 8 13 13 16 13 5 9 16 14 9 11 13 3 3 14 12 11 10 7 6 6 4 7 10 12 12 12 12 12 12 12 11 11 12 12 12 12 12 12 13 13 13 13 14 14 13 12 14 14 14 15 15 15 15 15 14 13 14 14 13 13 13 14 14 14 14 13 13 12 13 14 13
3 3 2 4 1 1 2 1 2 1 2 1 1 3 1 4 6 4 4 4 4 5 5 9 7 3 17 16 13 16 10 8 9 13 8 9 8 12 10 14 12 9 8 7 6 6 6 9 12 13 12 12 13 13 13 13 11 11 12 12 12 12 11 11 12 12 14 15 14 14 14 13 13 14 14 14 15 15 15 14 14 13 13 13 14 14 14 14 13 13 13 13 13 13 13 14 13
2 1 2 1 1 2 1 1 1 0 2 2 4 0 4 5 6 5 3 5 4 7 7 10 8 5 11 10 5 5 7 12 11 9 9 10 13 13 11 13 10 9 8 8 7 7 8 14 13 13 13 13 13 13 13 12 12 12 12 11 11 11 11 11 11 12 12 14 13 13 13 14 13 13 14 14 14 15 15 14 13 13 13 13 12 12 13 14 14 13 13 13 13 13 12 12 12
3 2 4 2 2 1 1 1 2 0 1 0 1 1 3 6 6 3 6 6 3 5 6 6 10 11 9 10 5 8 11 7 11 11 12 11 15 16 14 12 11 9 9 8 7 6 8 14 14 13 13 13 13 13 13 13 12 12 11 11 11 12 12 12 12 12 12 12 14 12 11 14 14 14 14 15 14 15 14 14 13 13 13 12 10 11 13 13 13 13 13 12 12 12 12 12 11
3 3 1 3 2 2 1 2 1 2 1 0 1 2 9 5 4 7 6 4 5 11 14 14 14 14 10 7 11 10 12 13 10 12 11 15 17 16 13 11 11 10 10 8 7 7 11 14 14 14 14 14 13 12 13 13 13 12 12 12 11 12 12 12 12 12 12 14 13 13 13 13 13 13 13 14 14 14 14 13 13 13 13 11 11 13 13 13 13 13 12 11 11 11 11 10 10
0 2 1 2 0 1 1 2 2 1 2 2 1 5 5 3 6 5 6 5 5 5 8 11 9 11 13 9 9 10 13 11 16 16 17 15 16 16 15 12 11 11 10 8 8 8 13 14 13 13 13 13 12 13 13 13 12 12 12 12 11 11 11 12 13 13 14 14 14 13 13 14 14 14 14 14 14 14 14 13 13 13 12 12 12 13 13 13 13 13 12 11 10 10 10 8 7
4 3 0 1 1 1 1 2 2 2 1 1 3 6 3 4 4 3 3 3 4 10 16 15 9 12 8 13 9 12 14 18 18 18 15 15 16 16 10 11 11 10 11 10 9 9 9 13 13 13 13 13 13 13 13 12 13 12 12 12 11 11 12 12 14 13 14 15 14 13 13 13 14 14 14 14 14 14 14 13 13 12 12 12 11 12 12 12 12 12 11 11 10 9 9 7 6
3 2 1 1 0 2 1 1 2 1 2 3 3 4 4 2 3 3 4 3 6 10 11 15 10 15 14 15 12 10 11 19 17 16 13 13 16 15 15 14 13 13 11 10 9 8 7 14 14 13 13 13 13 13 12 12 12 12 13 12 12 12 13 13 14 14 14 15 15 14 13 13 14 15 14 14 14 14 13 13 13 12 10 10 11 12 12 11 11 11 11 10 9 9 8 7 5
2 2 1 1 2 2 1 3 1 2 3 3 5 3 3 4 4 3 2 7 10 14 17 17 13 14 12 9 8 10 16 17 16 15 14 14 15 15 13 13 14 12 11 11 10 8 7 8 15 14 14 14 14 13 13 12 12 12 13 13 13 13 14 15 14 12 14 15 15 14 14 14 14 14 15 15 14 14 13 13 11 8 8 8 12 12 11 11 10 10 10 9 9 8 7 6 4
2 2 0 2 2 1 2 4 5 1 5 2 1 5 7 1 7 5 4 8 11 13 13 9 9 12 13 12 8 9 16 15 14 12 13 13 11 14 13 10 13 12 12 11 10 8 7 7 7 13 15 14 14 13 12 13 13 13 13 13 13 14 15 13 16 16 15 15 14 15 15 13 15 14 14 14 14 13 13 13 10 8 7 8 11 11 11 11 10 9 9 9 8 7 6 4 3
2 1 3 1 1 1 2 4 6 5 0 3 1 4 7 2 6 4 3 7 11 10 8 12 16 9 11 7 7 11 13 15 14 14 13 12 11 10 11 12 12 12 11 11 10 9 8 7 8 6 10 15 13 13 13 13 13 13 14 14 14 14 15 16 17 18 17 14 15 15 16 16 16 15 14 13 13 13 12 12 10 9 9 11 10 10 10 10 10 9 8 7 6 6 5 4 3
5 2 3 1 1 1 4 2 6 5 2 2 1 3 4 3 2 1 3 4 6 7 13 15 10 11 13 10 7 8 9 13 16 15 13 14 13 12 13 11 11 11 11 10 10 9 9 9 7 6 6 5 6 10 12 13 13 13 14 14 14 14 15 16 17 17 16 15 15 15 16 17 16 16 14 13 11 9 11 11 10 11 11 10 10 10 9 9 8 8 7 6 5 4 4 3 3
6 1 2 1 0 3 2 4 8 7 5 1 3 2 2 2 2 4 2 4 8 12 11 11 12 9 9 11 9 9 12 13 18 16 15 14 14 12 12 10 10 9 8 8 8 9 10 8 6 4 4 5 5 5 4 9 14 14 14 14 14 15 16 16 19 17 16 16 16 15 15 16 15 15 15 13 10 9 10 10 9 9 10 10 9 8 8 8 7 7 6 5 4 4 4 3 3
5 4 2 0 1 3 4 3 5 5 3 3 1 1 4 2 0 2 3 1 2 4 8 9 9 3 14 9 13 15 16 15 16 16 15 14 13 12 11 10 8 7 6 5 7 8 9 8 5 5 4 5 5 5 4 5 12 15 15 15 15 15 16 17 18 19 19 15 16 15 14 11 11 9 12 10 11 11 10 8 10 10 11 9 8 7 6 7 6 5 5 5 4 4 4 4 4
3 4 1 1 1 3 5 5 7 7 4 2 2 3 2 2 1 3 3 1 4 8 6 10 7 12 12 12 16 16 15 17 16 15 13 9 9 8 7 6 5 4 4 3 3 7 9 8 6 5 4 5 7 5 4 5 9 14 12 15 16 17 16 17 16 17 17 17 15 14 15 9 5 5 6 4 9 6 9 11 10 10 9 8 7 6 6 6 6 5 5 5 4 3 4 4 5
3 2 2 2 2 3 6 6 4 4 8 6 5 4 6 6 2 1 2 1 3 1 6 10 14 12 13 16 16 15 14 19 14 14 11 9 7 7 7 6 5 5 4 3 4 5 6 6 6 4 5 6 5 5 4 4 6 8 6 6 8 10 13 14 10 7 9 8 16 11 7 8 6 5 5 7 3 6 7 10 10 8 7 6 5 5 5 5 5 5 5 5 5 5 6 3 4
5 1 0 3 1 0 4 3 4 7 6 9 7 4 6 5 4 2 2 3 4 2 10 10 15 16 15 15 16 15 13 18 16 14 14 12 9 9 7 6 6 5 4 3 3 5 4 5 5 4 5 5 6 5 5 5 5 5 5 7 7 8 8 8 6 5 4 5 5 6 6 5 6 5 4 5 5 8 7 9 8 8 6 5 4 3 4 5 4 4 4 5 5 6 3 3 4
1 3 1 3 3 3 5 8 8 4 11 9 8 6 5 6 2 2 4 6 5 6 11 14 15 18 16 16 15 15 12 12 16 16 14 12 11 9 7 8 8 6 5 3 4 4 4 4 5 5 5 4 6 5 5 5 4 5 5 5 5 5 4 5 5 4 4 4 4 4 6 5 6 6 10 13 10 5 5 8 8 7 6 5 5 3 3 4 5 5 6 6 5 3 3 4 5
2 3 4 4 2 1 3 6 10 9 12 10 7 5 7 5 2 2 6 6 6 5 12 15 18 17 18 16 15 14 13 13 12 16 15 12 11 9 7 6 7 6 4 3 4 5 4 4 4 4 3 3 4 6 6 6 5 5 5 5 5 4 3 3 4 4 4 4 3 5 4 4 4 5 5 5 4 4 3 2 2 2 1 2 4 2 2 3 4 4 3 5 4 5 5 5 5
5 6 3 5 3 5 4 7 7 12 9 8 6 11 9 3 3 1 5 5 6 9 14 17 16 17 17 16 14 13 13 13 11 14 16 14 12 9 7 6 8 7 5 4 4 5 4 4 4 4 3 3 3 5 5 6 6 5 5 5 5 4 4 3 4 3 4 4 4 5 4 5 5 5 5 5 5 4 4 3 3 4 3 3 2 3 3 4 4 4 5 5 6 5 6 6 6
4 2 5 6 7 4 4 6 8 11 9 9 8 6 7 4 2 0 1 2 4 12 14 17 15 15 15 13 13 14 13 12 12 14 15 14 11 9 9 6 7 7 5 4 3 4 5 4 4 4 5 4 3 2 4 4 5 5 4 4 4 5 4 4 4 4 5 5 4 5 6 5 5 4 3 5 5 5 4 4 5 5 5 4 4 4 4 4 5 4 4 5 6 6 7 7 7
6 2 5 5 8 5 7 7 8 10 11 10 5 6 6 8 5 1 1 5 10 14 16 16 16 15 14 13 12 13 12 11 13 14 16 15 13 12 10 9 7 6 5 5 4 5 4 5 5 5 5 5 3 2 5 4 4 5 5 4 4 4 4 4 5 5 5 4 6 6 6 5 6 5 5 4 4 4 4 5 5 5 5 4 3 2 1 2 2 3 3 5 5 6 6 6 8
4 1 5 3 4 2 6 5 5 8 8 7 7 9 7 5 4 3 4 3 14 14 14 16 16 15 13 13 13 12 11 11 14 14 14 14 14 13 10 7 8 6 7 7 6 6 5 5 5 6 5 5 4 2 4 3 3 4 5 5 5 5 4 5 5 5 5 6 6 5 5 5 5 5 5 5 5 3 4 2 4 3 1 2 3 2 2 2 2 4 4 4 4 5 4 3 3
3 4 6 5 6 4 3 6 9 10 5 4 9 7 5 3 6 1 3 3 12 16 16 16 16 15 14 14 12 11 10 12 12 16 15 12 16 16 12 9 9 8 8 7 7 6 5 6 7 7 6 6 5 4 3 4 2 5 4 4 5 5 4 4 4 5 6 6 6 6 6 6 5 5 5 4 4 2 3 1 1 1 2 3 3 2 5 2 2 4 4 5 4 4 0 3 1
6 7 7 7 3 4 8 8 4 5 6 2 4 9 7 3 3 3 4 2 16 16 16 15 15 14 14 13 11 9 11 10 10 12 15 13 12 14 15 13 11 9 9 8 6 6 6 6 7 8 7 7 5 4 4 3 3 5 5 3 5 5 4 5 5 5 5 4 4 4 3 5 6 5 4 4 3 3 3 2 1 1 3 1 3 5 4 4 3 4 5 3 4 4 6 5 4
11 12 11 9 6 10 6 6 6 1 4 4 3 8 6 3 1 8 6 5 13 16 16 16 13 12 11 13 11 7 9 7 10 14 16 13 9 10 11 11 13 12 11 9 6 5 5 6 8 9 9 8 7 6 4 4 4 5 5 4 5 5 4 3 4 5 3 3 3 3 2 5 5 4 4 4 3 3 2 3 3 3 3 2 2 2 3 1 2 2 3 3 3 3 5 4 6
14 10 6 5 8 4 2 7 1 3 0 7 6 10 3 3 5 9 7 3 10 13 16 14 13 11 12 12 8 9 7 7 9 10 13 10 10 10 11 11 12 11 9 11 8 7 7 7 8 7 7 7 7 11 7 6 5 5 4 5 5 5 3 4 5 5 5 3 3 5 5 5 4 5 4 4 4 3 3 4 4 3 3 2 1 1 2 2 2 3 3 3 5 5 5 6 5
9 4 8 7 5 2 4 3 3 4 1 2 3 8 3 3 3 6 7 4 10 11 13 13 11 11 11 8 9 10 5 9 8 9 9 9 10 12 13 14 13 10 8 8 11 9 8 8 8 9 7 6 6 8 8 7 7 6 6 5 5 4 4 6 5 5 4 4 4 4 4 5 5 4 4 4 4 4 3 3 2 2 1 2 1 2 2 2 2 3 3 4 4 3 4 4 3
5 6 3 5 2 1 2 2 2 3 2 5 7 6 4 3 4 7 7 7 13 13 12 13 12 11 9 9 9 7 9 6 10 11 11 11 11 10 11 13 13 11 9 9 12 12 9 7 6 8 8 7 5 6 5 5 5 6 7 6 5 7 6 6 5 5 5 4 5 4 4 4 4 4 3 3 3 4 4 4 2 2 2 1 3 2 2 3 2 3 3 5 5 6 5 5 2
4 3 3 2 2 1 3 4 2 3 2 6 2 5 5 7 8 8 5 10 11 12 12 12 12 10 10 9 9 6 10 7 12 12 11 13 11 11 12 11 13 12 11 11 10 9 8 7 7 7 7 6 6 5 5 6 6 5 4 4 6 7 7 7 5 5 4 5 4 4 3 3 3 3 3 3 3 4 4 3 2 1 3 2 3 2 2 4 4 3 3 2 4 4 4 6 4
3 2 2 3 1 3 4 5 3 3 3 1 3 4 6 4 9 8 6 9 10 11 11 11 14 13 11 10 8 8 9 9 10 10 11 12 11 12 11 12 12 11 11 11 11 9 9 8 7 8 8 6 5 5 5 5 5 4 4 6 7 6 7 7 6 5 5 5 5 4 3 2 3 4 4 3 2 2 2 3 2 2 2 2 4 3 4 3 3 3 4 2 2 4 5 6 3
0 3 3 2 6 5 3 4 7 3 6 1 4 3 5 5 10 8 6 7 8 11 11 12 12 10 10 9 8 11 6 10 9 9 10 13 10 13 11 9 10 10 10 11 10 10 9 8 8 7 6 5 5 5 4 4 5 5 3 4 4 5 6 6 6 7 5 5 5 4 3 3 3 4 3 3 3 3 3 3 3 3 2 3 3 3 3 2 3 2 4 4 3 3 5 4 3
5 4 5 3 4 4 4 6 4 9 4 1 4 4 4 8 9 9 7 6 5 9 10 12 12 11 10 9 9 11 6 10 8 7 12 13 14 11 10 12 11 9 9 9 10 8 9 8 6 8 6 5 5 4 3 3 4 3 3 3 5 4 4 4 6 6 6 6 5 4 4 3 3 4 4 3 4 2 3 3 3 3 3 2 3 2 3 3 3 3 3 5 5 4 4 4 1
8 6 5 7 6 3 3 4 6 10 7 5 2 5 7 9 8 8 7 5 5 8 7 12 10 11 10 8 10 10 6 10 8 8 14 12 10 11 10 11 10 8 9 8 9 9 7 9 8 6 6 5 4 4 3 3 3 2 4 3 5 4 5 5 4 5 6 6 5 4 4 3 3 4 4 3 3 2 3 3 3 4 2 2 3 2 3 3 3 4 4 4 6 6 7 3 1
10 9 9 5 6 4 4 3 6 6 7 8 7 4 9 9 9 8 8 5 4 8 6 11 10 10 9 8 11 9 8 10 10 9 13 13 13 12 9 10 10 9 9 9 10 9 11 9 8 8 6 5 5 5 3 3 2 3 4 3 4 3 4 4 4 5 7 6 4 3 4 4 3 3 3 3 3 3 3 3 4 3 2 2 2 1 1 3 3 2 4 2 4 5 4 2 2
12 9 9 6 5 7 1 2 2 5 2 4 2 5 8 10 9 7 6 6 7 7 6 9 12 11 8 9 12 9 6 9 11 7 14 13 12 12 9 9 9 11 9 9 10 11 9 10 9 8 6 5 5 5 3 3 2 4 5 4 5 4 4 5 3 2 3 5 5 4 4 3 3 3 3 2 2 4 3 2 2 3 1 1 0 1 2 2 2 4 3 4 2 3 3 2 5
11 9 7 5 3 8 7 2 1 3 5 3 2 5 1 9 8 1 4 4 4 2 2 5 11 13 10 9 12 9 6 10 10 8 13 13 15 12 10 9 9 11 11 8 10 11 10 9 8 7 7 6 5 4 3 5 3 3 4 2 4 3 1 2 3 2 1 7 5 4 4 4 3 3 3 2 2 3 3 3 2 1 1 1 1 1 3 4 3 2 2 3 4 3 2 2 4
9 9 7 5 7 7 3 2 6 6 2 3 4 1 1 2 3 3 4 4 4 5 6 5 3 15 11 11 12 10 7 12 11 10 12 14 14 11 10 9 10 10 9 8 10 10 9 8 8 7 7 6 6 5 5 4 4 4 5 5 3 3 2 2 3 3 1 5 5 4 4 4 3 3 3 3 2 3 2 2 1 1 0 1 1 1 1 3 3 2 3 3 1 4 4 3 2
8 7 4 6 9 1 3 7 7 6 4 9 5 4 2 2 3 2 7 5 6 5 8 6 2 4 8 11 9 14 7 11 12 11 11 13 13 13 10 10 11 10 10 10 10 9 7 10 10 9 7 6 6 7 7 5 5 5 4 4 3 3 3 4 3 2 2 4 5 3 4 4 4 4 3 3 3 3 3 3 2 1 1 2 2 1 1 2 2 2 3 2 3 1 4 2 2
7 7 11 9 7 9 12 11 10 4 3 6 10 3 4 3 4 2 3 2 5 2 4 7 3 2 4 11 11 14 6 11 10 12 10 13 13 13 10 11 11 10 9 10 10 10 9 9 9 7 6 6 7 9 8 6 6 6 5 5 4 4 4 4 4 4 4 6 6 4 4 4 4 3 3 3 3 3 3 2 2 1 0 1 2 1 1 2 2 1 2 1 3 3 1 4 4
8 6 11 13 11 12 15 13 5 4 5 7 5 2 2 2 4 6 3 2 6 2 2 5 5 2 3 6 11 13 9 11 8 10 9 14 13 13 12 12 11 11 9 10 9 9 12 9 8 8 8 6 7 8 8 6 6 5 6 6 5 5 6 2 3 3 5 5 6 5 6 3 3 4 4 4 3 3 3 3 2 1 0 0 0 1 1 1 2 2 2 2 2 2 3 4 4
3 9 15 14 15 14 11 11 5 3 5 5 1 1 2 3 6 8 7 6 4 6 5 5 5 4 5 3 9 12 10 13 8 11 9 13 14 13 14 13 12 12 11 10 11 9 13 10 8 8 7 7 6 8 7 7 6 6 5 4 4 5 4 3 3 3 4 4 5 7 5 4 3 2 6 4 3 2 3 3 2 2 0 0 1 1 1 2 0 2 0 0 2 3 1 1 2
7 7 14 15 16 16 12 8 6 4 7 5 5 5 1 1 2 8 9 7 5 9 7 8 7 6 7 6 4 13 10 13 11 10 10 12 15 12 13 12 12 13 12 10 11 10 11 10 8 8 8 7 6 7 7 6 6 6 5 5 5 4 5 4 3 3 4 3 4 3 5 4 4 3 5 4 3 3 2 3 2 2 2 1 0 2 1 1 1 0 1 2 1 2 2 0 2
7 12 12 10 11 15 15 8 6 4 2 7 10 7 2 1 5 7 7 8 11 11 11 10 9 9 8 8 4 8 8 10 10 10 11 10 14 13 12 12 11 12 12 11 9 12 11 10 9 9 9 7 7 7 6 6 6 6 6 6 6 4 4 4 4 4 4 3 4 3 4 5 4 4 3 3 4 3 3 3 3 3 3 2 1 1 1 1 1 3 1 1 1 1 1 1 2
9 15 13 9 7 6 6 6 5 4 1 5 11 11 5 2 5 9 11 10 13 10 8 9 9 9 10 9 8 5 9 8 11 8 10 11 13 13 13 13 11 11 10 11 11 12 12 10 10 9 9 8 9 8 6 7 6 5 5 6 6 6 5 6 5 3 3 3 4 3 3 3 3 4 4 3 4 3 3 3 2 1 2 2 0 2 1 3 3 0 2 0 0 1 0 2 3
14 6 10 12 9 6 5 4 6 1 1 6 1 10 9 4 2 7 13 5 9 12 14 14 13 12 11 10 9 7 6 8 11 8 8 12 12 13 13 12 11 11 12 11 12 12 12 10 10 9 7 9 9 7 7 7 6 5 5 5 6 6 6 6 6 6 4 4 4 4 4 4 2 3 1 3 4 4 4 3 3 2 0 1 1 1 2 2 1 2 1 1 0 1 1 1 1
9 7 10 9 1 1 2 1 2 2 1 2 3 2 4 11 4 5 11 12 11 13 12 14 15 14 13 12 12 9 6 8 10 9 7 12 12 14 14 12 8 10 13 11 14 13 12 11 11 10 8 10 9 7 7 6 6 6 6 5 5 4 5 6 6 5 5 5 4 4 4 4 4 2 1 2 4 3 5 3 2 3 1 1 2 1 2 2 2 2 1 0 0 0 2 2 2
7 8 5 4 5 2 3 1 1 1 1 4 2 9 5 3 6 5 9 13 13 11 13 10 12 14 14 13 11 9 7 9 10 10 8 9 11 12 13 12 8 10 13 12 14 12 11 11 11 11 9 10 9 8 7 6 7 7 6 6 5 5 5 5 5 5 4 5 5 5 5 5 5 4 3 3 3 4 4 4 3 3 2 2 2 2 2 2 2 1 0 1 2 3 1 2 3
7 7 7 5 6 5 4 3 3 1 2 1 3 5 4 4 4 2 3 4 8 13 13 13 13 13 12 11 9 9 8 5 10 10 9 10 11 11 12 12 8 10 13 13 13 12 11 11 11 11 9 10 10 9 8 6 7 7 7 7 5 4 5 4 4 4 4 5 5 4 5 5 5 4 5 4 3 4 4 4 4 3 3 2 1 1 2 2 3 2 1 1 2 2 3 3 3
3 3 3 4 6 6 6 6 6 4 3 2 2 3 1 3 4 8 2 5 2 12 12 13 15 13 13 11 11 10 9 9 9 9 9 10 11 9 10 11 8 9 12 10 13 13 12 11 11 11 9 11 10 9 8 7 7 7 7 7 7 6 5 4 4 3 3 5 5 5 4 5 5 4 4 4 4 3 3 4 4 4 3 3 2 3 2 2 2 2 1 0 2 2 3 3 4
3 5 6 5 11 8 6 3 4 3 3 1 1 2 2 2 6 7 4 3 2 4 13 12 14 15 15 14 12 11 10 9 10 9 9 10 9 9 9 11 9 9 10 9 12 13 13 12 12 12 8 9 10 8 10 6 7 7 7 7 7 6 6 6 6 5 5 6 6 5 5 4 4 4 4 3 3 3 4 4 3 4 3 3 3 3 2 2 3 2 3 2 2 3 3 2 2
1 4 6 3 4 4 6 4 1 3 2 1 1 3 0 0 4 2 5 4 4 2 5 13 14 14 16 14 13 12 11 8 11 11 9 11 9 10 9 10 10 9 10 10 12 12 12 12 13 13 9 11 9 9 9 7 7 7 7 7 6 7 6 6 5 6 5 5 5 5 5 4 4 5 4 3 4 5 4 4 3 4 4 4 3 4 3 3 3 3 3 3 4 2 1 2 3
7 4 3 6 2 6 2 4 2 4 0 1 4 4 3 3 5 2 6 7 4 4 3 9 12 14 14 13 14 12 10 7 6 8 9 10 9 9 10 10 11 8 9 11 12 12 10 11 11 12 11 11 10 9 8 7 7 6 7 8 7 7 6 6 5 5 5 5 6 6 6 6 5 4 4 3 5 5 5 4 4 4 4 4 4 4 4 3 4 4 2 2 3 3 3 2 3
11 4 3 4 3 6 2 1 2 3 3 3 3 2 3 4 4 5 8 7 5 5 4 3 10 11 11 11 12 13 10 6 7 4 6 1 4 7 12 11 11 9 10 12 13 11 13 12 11 10 9 8 9 8 8 8 8 7 8 7 7 6 6 6 6 6 5 5 4 6 5 7 7 6 5 5 5 4 4 5 5 5 5 4 3 4 4 3 3 4 3 4 4 3 3 3 3
3 1 3 2 2 2 5 1 1 4 2 3 4 2 4 4 4 6 8 7 7 6 4 2 3 11 11 11 12 11 5 4 4 4 6 6 10 11 9 6 2 5 6 12 11 12 13 11 11 12 10 10 12 10 9 7 8 6 7 9 9 8 8 7 7 6 6 5 4 3 5 6 6 6 6 6 5 5 5 4 5 5 6 5 5 4 4 4 4 3 3 3 2 3 2 3 3
3 2 4 1 6 5 3 1 4 3 5 4 5 3 5 5 1 3 2 2 4 3 3 2 3 2 10 10 11 6 11 10 6 7 7 4 7 7 8 8 7 9 10 9 1 11 11 11 11 11 11 9 10 8 10 8 7 6 7 9 7 7 8 6 8 7 6 6 5 4 4 3 6 6 7 6 6 6 5 6 5 4 5 6 5 4 4 4 4 4 3 4 5 4 4 4 3
Wind_Direction
157 152 174 199 199 281 124 330 35 335 55 63 125 24 268 359 233 80 71 40 63 209 102 87 70 47 79 100 101 71 26 86 283 138 160 148 135 146 156 150 133 133 136 143 146 123 118 121 122 118 117 117 115 108 101 100 103 105 102 101 103 104 106 107 109 109 107 102 104 103 109 114 115 121 120 115 111 109 106 107 107 105 103 101 104 106 107 110 112 107 102 103 103 104 106 110 114
160 180 191 173 191 231 309 190 105 359 31 73 12 25 266 223 94 119 139 145 171 93 95 95 104 100 96 106 98 65 36 28 76 101 84 123 107 106 154 135 140 139 142 148 140 129 117 109 113 116 114 111 109 106 101 104 107 107 106 104 105 107 109 110 113 112 109 109 108 109 115 117 114 115 116 113 111 111 111 110 108 108 112 107 105 106 108 108 109 110 108 104 101 101 103 106 109
197 203 201 140 28 300 111 280 70 31 36 83 42 211 262 185 104 76 99 124 113 106 105 87 78 79 71 61 45 77 79 51 80 81 103 111 102 224 198 138 137 142 146 142 133 125 114 110 108 111 110 108 108 107 107 105 105 105 106 110 109 111 113 113 113 114 108 109 108 110 111 116 116 116 117 115 113 114 114 115 114 111 108 104 103 107 108 108 107 108 106 105 105 105 105 108 109
315 330 297 181 293 295 25 8 67 79 73 101 108 266 247 135 95 104 110 112 89 88 86 85 72 69 91 78 99 89 93 73 72 112 118 139 149 157 196 134 136 144 140 136 131 114 106 117 120 117 116 114 111 109 109 106 109 113 110 111 113 112 113 111 116 116 114 116 119 116 115 119 117 116 117 116 112 115 118 117 113 112 108 109 109 109 112 110 109 107 107 108 110 110 109 108 112
251 270 10 104 121 20 22 40 58 60 132 180 173 256 261 110 109 108 63 73 79 81 87 101 100 88 90 102 107 88 111 111 107 107 118 124 145 153 132 127 134 135 134 125 121 121 125 125 120 117 117 115 112 108 107 112 114 115 114 113 116 116 112 113 119 120 121 120 117 114 118 120 118 119 118 116 115 116 116 114 113 112 111 107 106 113 112 111 111 109 106 106 107 105 107 109 111
223 193 335 50 88 309 340 58 57 69 230 41 138 245 169 122 133 125 103 97 87 107 125 105 92 95 78 76 91 113 152 120 123 107 122 128 129 126 128 133 135 137 127 122 119 116 122 120 115 117 117 114 113 112 112 115 114 114 116 118 116 116 117 120 123 126 126 124 118 119 119 122 121 123 122 121 119 118 114 113 116 115 114 111 110 113 112 112 111 110 108 107 105 106 108 107 107
182 124 46 47 64 64 160 91 66 194 258 103 241 289 132 140 132 111 113 89 50 76 80 87 102 109 98 100 93 84 91 116 118 124 128 135 130 129 134 135 135 127 121 121 117 113 119 121 125 122 119 117 114 114 115 116 121 119 118 123 125 125 124 126 127 128 126 113 116 123 127 124 122 122 120 120 120 119 116 117 119 116 112 110 115 113 111 110 110 108 109 110 109 106 107 107 105
209 93 33 78 350 128 80 94 159 282 217 194 270 270 144 139 125 122 149 127 134 111 115 103 82 91 86 97 102 116 117 104 115 122 126 132 136 135 134 138 130 119 113 106 103 115 119 118 116 119 117 114 117 118 117 119 118 119 119 121 122 123 125 126 129 127 121 118 121 123 121 122 122 121 125 126 125 122 122 123 119 116 115 109 106 110 113 111 110 110 111 111 109 106 104 98 91
9 73 150 91 41 2 23 79 178 320 338 212 250 261 210 150 134 126 99 109 102 88 96 105 111 99 103 98 89 104 102 113 118 128 133 142 130 126 129 124 115 115 115 116 116 115 120 119 119 120 118 119 119 117 117 113 112 114 115 117 120 126 129 129 121 121 120 120 122 122 121 124 123 123 127 127 123 123 124 123 119 120 115 107 109 111 109 107 106 105 105 106 105 104 97 92 89
46 32 53 85 320 64 48 46 90 166 272 239 253 223 152 127 93 92 121 97 109 102 88 84 91 97 108 100 104 103 114 117 124 128 141 134 126 127 127 126 120 122 125 122 121 125 125 122 121 120 117 115 115 116 115 112 114 117 119 124 127 130 133 126 122 120 121 118 122 125 126 126 124 124 123 123 125 128 125 121 120 119 118 115 112 109 105 103 103 105 106 106 104 103 100 95 89
80 47 298 42 48 99 208 155 55 359 302 312 275 229 113 115 91 62 89 100 89 98 102 107 102 110 112 98 91 114 121 125 132 135 139 126 125 132 130 123 125 127 124 123 121 122 119 119 119 116 113 114 115 112 112 114 119 120 122 124 125 126 122 120 117 124 121 121 124 126 125 125 124 125 126 126 130 129 128 124 124 127 126 127 117 110 106 103 102 104 106 107 107 104 103 98 100
102 149 82 20 26 34 211 123 125 247 279 309 334 26 351 354 89 102 107 102 110 114 125 135 113 121 99 110 113 136 131 124 124 125 120 112 102 102 107 112 120 119 120 123 122 114 112 110 103 113 108 106 106 108 112 117 120 120 118 120 125 125 123 127 131 128 125 124 125 126 126 125 123 120 121 124 128 132 131 130 135 131 134 133 114 112 107 104 103 105 106 102 102 103 108 120 124
118 113 121 175 25 191 116 136 143 175 325 285 329 351 346 59 118 145 142 120 127 132 107 101 123 123 114 117 135 135 127 132 134 129 103 105 108 104 110 114 116 120 126 123 120 121 123 109 101 105 113 113 113 112 114 116 118 119 122 125 127 127 127 129 127 124 122 125 126 127 129 128 121 120 125 127 130 131 131 129 129 133 132 119 114 109 109 111 109 104 98 97 100 112 124 150 170
100 194 148 355 148 292 137 108 140 149 222 276 333 341 6 33 31 87 107 107 127 111 120 129 128 119 102 116 121 123 126 138 127 109 111 108 112 111 109 114 116 121 123 127 131 135 118 106 109 108 112 106 99 106 113 116 117 118 120 124 126 127 126 127 120 116 124 128 126 130 127 127 125 125 128 128 128 131 125 121 125 126 122 114 109 108 108 108 110 107 102 104 109 124 142 171 196
102 222 86 211 62 79 44 156 175 163 193 214 279 28 17 21 113 342 119 118 101 128 132 120 118 131 147 145 140 139 142 136 110 116 112 116 113 105 105 100 98 103 108 113 113 107 108 115 120 124 117 111 102 92 94 116 119 119 120 122 125 128 125 122 119 119 122 126 129 126 124 123 127 130 133 133 132 124 119 123 125 122 110 107 107 108 111 112 109 108 107 108 122 151 170 191 215
132 127 90 312 152 149 175 133 203 145 180 212 322 112 86 7 73 71 172 206 180 121 118 122 170 93 140 130 131 135 138 121 117 117 116 115 112 107 106 100 96 102 102 101 109 107 113 115 114 103 100 101 101 99 102 106 116 119 120 122 124 122 119 117 116 123 128 127 126 121 114 108 114 120 118 129 134 133 137 143 130 111 106 108 112 113 118 116 117 118 132 148 157 167 186 209 224
103 85 83 308 252 159 176 164 171 179 132 187 108 201 136 154 235 276 316 346 111 119 134 156 116 135 132 133 132 134 131 110 107 105 105 104 105 106 100 99 101 83 79 66 72 117 122 121 123 127 135 118 110 112 110 107 114 116 118 120 119 118 119 119 120 123 128 128 123 124 125 119 118 110 116 125 137 137 133 123 112 111 110 113 115 124 125 129 132 150 160 171 183 208 212 229 247
105 71 115 242 212 179 184 175 178 106 141 167 166 210 130 149 215 283 28 36 77 72 113 117 132 121 124 127 134 131 128 118 114 115 115 113 116 117 114 110 102 102 102 71 50 59 95 114 126 129 112 114 118 108 102 102 105 104 100 102 105 112 116 116 116 128 131 125 127 131 126 128 128 134 131 132 102 116 117 121 116 119 128 132 133 139 146 144 156 168 181 179 190 206 228 237 258
64 83 60 278 248 69 121 174 281 149 159 157 170 197 145 171 158 213 104 145 146 127 120 133 112 118 123 130 129 131 142 130 124 122 125 127 129 128 130 131 124 123 111 119 94 92 88 111 121 122 117 123 114 106 103 100 100 99 91 97 108 111 120 119 128 133 107 114 116 123 121 119 122 114 115 121 117 122 127 126 136 147 156 162 163 158 153 164 178 189 200 210 223 229 249 263 267
278 79 29 290 332 140 183 187 197 222 141 152 162 192 151 173 157 165 145 173 172 164 133 122 126 132 137 131 135 141 142 132 131 133 133 134 133 129 128 130 132 127 138 147 127 98 113 116 126 125 131 125 111 119 117 114 111 102 102 98 105 111 118 121 124 115 110 120 134 119 116 125 133 143 138 134 131 129 135 144 151 156 165 174 182 186 205 200 198 208 218 219 229 245 230 234 245
233 141 131 247 277 271 159 189 203 156 152 151 157 126 125 198 153 145 174 159 191 148 136 136 137 141 132 138 141 146 139 137 150 138 132 133 129 129 130 131 125 122 132 118 108 123 129 130 128 123 117 105 110 121 119 119 126 112 115 120 125 133 136 132 129 134 139 147 130 111 120 117 114 121 120 122 124 141 145 143 146 149 183 230 205 210 231 241 209 227 237 229 228 229 238 240 236
155 191 191 185 251 259 156 210 179 147 144 142 140 140 170 119 100 264 182 167 192 140 141 133 138 134 138 144 147 142 140 152 150 127 132 134 133 126 117 113 102 107 130 132 131 128 136 146 128 127 112 100 103 111 121 131 122 125 131 142 145 155 145 144 148 145 144 146 146 141 121 119 127 134 146 141 149 159 162 171 183 192 201 218 211 222 237 242 228 223 218 224 227 222 221 234 241
119 148 151 198 202 194 193 190 165 140 143 145 149 154 119 123 102 112 116 221 145 127 133 135 134 136 138 141 143 141 151 157 136 132 126 124 128 130 128 123 125 136 143 138 127 133 150 143 128 126 125 124 129 135 115 119 126 131 134 143 137 150 155 155 168 158 163 161 146 131 136 147 151 162 163 158 165 169 171 180 191 199 203 209 204 214 223 207 213 223 217 222 229 228 222 216 221
99 172 184 206 221 183 180 167 168 143 141 154 158 138 133 137 125 176 191 263 134 127 132 132 133 134 139 145 147 149 157 152 139 133 128 135 139 141 140 140 133 133 132 146 156 145 160 147 144 141 129 141 148 159 126 139 148 141 149 154 142 167 150 159 173 161 168 172 142 153 156 159 163 160 150 161 181 171 185 189 194 193 204 215 207 213 319 303 290 276 272 269 262 268 256 224 208
95 141 191 214 122 144 165 141 161 147 139 134 137 138 137 138 137 112 230 247 128 127 128 133 137 140 149 147 153 158 152 147 146 133 127 138 140 138 140 137 139 144 146 164 154 152 159 144 153 141 147 148 149 158 137 132 153 132 137 142 152 175 173 173 173 157 157 157 163 166 158 152 146 141 157 172 177 171 186 182 174 197 199 172 164 198 217 240 271 278 268 276 268 250 250 245 158
86 161 174 74 106 193 132 78 35 35 36 80 118 110 94 40 104 18 228 195 123 125 135 139 141 151 152 154 157 158 152 155 147 130 131 128 140 142 148 150 150 155 164 161 149 154 153 150 158 159 162 157 160 153 138 150 155 133 146 156 163 171 192 180 151 136 144 157 170 168 168 151 144 154 162 161 152 168 181 222 112 256 250 229 166 172 206 219 258 261 262 253 286 308 13 171 174
121 126 106 113 124 92 33 64 60 103 119 29 114 121 103 3 71 201 290 229 128 133 138 142 149 154 156 147 158 162 148 155 131 119 121 134 137 143 152 151 153 158 158 152 149 158 158 161 171 169 166 159 160 149 163 167 139 148 165 175 153 177 197 151 149 143 153 162 185 176 173 143 146 154 152 157 157 169 206 187 235 191 169 167 146 170 185 212 243 257 258 306 314 322 333 325 333
118 103 79 56 49 37 64 104 170 224 105 114 215 95 87 16 37 173 204 247 139 139 143 151 153 154 148 151 164 149 144 145 118 128 132 139 141 148 144 143 151 154 156 155 161 158 155 177 174 170 165 162 169 159 172 160 162 162 181 163 163 186 187 152 134 130 129 132 154 177 154 137 147 150 152 157 160 173 167 153 173 109 66 65 65 46 337 270 205 249 276 318 321 318 313 288 213
129 124 95 74 60 42 70 151 300 328 118 144 152 90 50 352 160 185 210 224 144 144 148 153 150 152 149 162 145 138 163 134 130 125 136 136 140 135 134 136 142 149 153 154 155 162 170 185 171 168 165 168 164 160 169 166 169 173 174 175 179 184 164 145 106 105 104 98 86 79 88 104 102 115 128 135 129 131 119 115 98 129 135 115 104 34 25 360 357 354 343 346 339 338 338 328 320
131 85 115 97 79 44 51 29 55 328 10 110 129 131 237 286 210 193 217 198 149 148 149 152 156 151 155 147 135 149 149 132 130 129 132 139 134 141 141 140 145 145 146 149 154 166 179 184 157 154 163 160 146 152 158 165 172 168 175 181 182 163 145 111 105 95 99 79 70 61 65 79 84 85 98 102 107 96 92 101 101 68 90 149 128 36 24 349 7 350 339 351 325 324 307 312 310
120 133 109 82 66 11 99 10 197 141 328 5 14 125 220 258 239 237 218 184 148 152 154 158 155 152 146 135 142 151 137 141 128 128 135 132 136 139 131 142 142 143 145 148 163 171 165 143 138 138 153 152 148 151 149 142 136 143 157 164 141 119 115 107 106 109 98 93 81 74 71 79 86 86 89 97 101 112 104 95 102 85 48 32 46 41 30 337 2 346 336 343 330 340 334 316 256
136 117 20 347 117 126 80 343 231 150 316 359 28 104 185 210 212 225 213 161 150 156 159 159 150 146 145 143 150 145 143 142 129 138 145 137 139 130 136 138 135 149 148 157 149 141 143 138 143 148 147 150 151 156 134 125 130 145 162 137 121 121 125 129 133 135 127 109 105 92 83 74 88 98 87 93 114 130 120 117 136 117 59 44 48 20 8 8 340 339 333 347 352 314 335 341 343
258 105 154 124 118 115 121 228 244 273 104 6 53 128 134 235 211 212 198 161 156 160 160 154 144 150 147 150 158 140 159 138 140 154 153 132 135 131 136 139 149 152 146 145 147 149 142 148 139 137 140 140 130 117 118 133 147 155 147 140 136 138 139 147 152 145 137 128 118 118 116 110 100 89 65 59 92 106 128 135 156 91 80 73 36 13 0 353 0 340 322 321 42 347 337 323 22
18 124 147 139 157 152 166 144 229 206 217 193 190 170 188 167 185 184 190 171 157 164 159 149 148 153 152 156 155 147 168 143 153 166 144 134 129 134 144 138 132 136 136 146 140 141 143 133 139 138 124 115 101 108 115 115 130 136 130 115 129 141 141 144 146 141 134 131 132 137 132 127 105 102 83 62 49 107 133 137 103 114 95 65 40 6 329 329 336 343 326 325 359 343 324 329 283
186 125 111 108 104 169 176 161 157 133 304 289 68 201 157 168 163 185 186 182 163 165 162 148 154 153 155 161 148 160 159 150 154 167 135 130 130 134 130 126 134 141 145 137 137 135 134 141 136 128 126 122 113 123 132 123 130 119 116 105 82 88 75 81 121 120 127 129 133 137 132 132 116 98 92 69 73 72 99 100 102 91 84 65 52 22 1 339 328 347 354 335 338 326 302 293 258
149 135 134 128 140 200 210 193 123 152 137 101 158 147 184 161 172 173 188 196 178 169 167 150 155 150 158 160 144 172 157 152 155 160 132 133 133 132 133 136 142 143 135 135 132 135 129 128 127 126 130 125 120 115 115 112 112 101 112 74 72 76 77 79 73 112 117 123 136 140 134 117 102 112 102 95 83 77 71 64 79 72 79 75 67 56 1 337 310 331 337 345 335 333 330 308 11
115 109 102 130 142 130 264 184 148 164 118 171 193 148 183 164 172 173 187 187 195 181 171 156 148 152 166 155 149 182 155 154 159 158 135 137 133 133 138 134 141 135 133 133 130 124 130 130 131 133 133 126 132 131 125 135 144 127 120 106 115 105 109 95 95 107 124 134 146 135 129 122 113 101 104 103 111 88 63 63 85 63 74 79 68 40 294 309 284 324 331 345 337 341 314 358 352
128 118 114 134 160 181 114 54 55 32 57 141 233 138 205 165 170 181 182 185 201 193 171 154 153 148 176 151 155 185 162 145 156 147 137 134 134 142 139 139 138 134 137 133 130 135 132 132 134 139 132 142 152 156 149 127 114 124 127 121 111 112 111 121 128 164 140 137 136 136 134 130 115 104 110 102 96 99 92 90 81 128 133 107 127 254 310 317 4 357 0 348 333 326 317 331 28
122 129 132 110 109 84 95 129 96 91 29 129 91 152 51 338 332 257 166 200 203 170 12 169 153 155 179 154 158 180 161 150 157 154 140 139 141 145 141 142 137 138 139 138 134 135 137 135 140 144 148 152 165 150 123 120 104 115 115 136 116 108 87 169 139 157 63 131 138 138 138 135 129 125 135 129 98 89 94 81 80 87 52 144 106 38 8 343 331 1 337 339 332 329 328 306 46
132 121 131 174 159 147 166 189 174 125 113 169 110 34 94 173 228 273 309 8 316 331 315 327 174 161 181 163 161 171 173 155 158 158 148 144 146 142 147 148 142 141 147 143 143 144 143 144 152 154 164 158 153 135 119 118 111 104 97 112 83 110 174 147 114 116 105 123 130 121 137 143 142 153 173 169 144 128 138 122 85 95 215 108 116 82 332 322 312 331 348 331 26 2 4 321 350
126 113 74 133 172 180 132 167 128 117 63 137 126 138 230 179 189 236 324 355 337 353 337 318 343 187 167 163 155 168 172 161 156 165 154 146 147 148 153 150 146 150 156 153 152 154 150 150 155 158 158 145 143 128 126 122 108 91 85 79 84 66 51 98 93 131 146 139 129 134 155 155 165 171 180 148 121 131 139 131 127 90 87 161 144 172 239 279 321 340 317 342 10 52 5 342 315
101 95 164 168 148 117 106 121 137 150 130 173 159 118 218 174 232 192 227 346 307 12 337 306 272 336 198 162 162 168 158 167 154 168 160 146 151 149 148 148 151 157 160 159 155 156 148 150 149 149 143 139 134 134 139 136 133 126 114 116 120 125 127 143 158 175 157 149 155 158 165 170 178 170 155 136 133 142 143 151 137 165 108 117 201 164 97 358 312 353 306 70 29 47 92 30 351
119 196 168 145 139 131 133 151 135 146 158 183 250 131 187 109 220 242 212 141 267 289 214 279 295 297 303 178 160 169 159 170 160 170 164 148 153 150 153 153 156 163 163 162 161 159 151 152 154 145 148 149 140 141 147 139 137 138 138 142 149 145 151 177 161 160 146 142 146 154 164 177 170 153 137 137 138 145 146 159 181 138 164 155 358 98 119 335 335 269 351 32 47 33 52 34 16
107 157 144 138 135 135 146 140 115 103 57 63 121 274 149 169 208 208 202 173 212 264 242 249 258 256 264 244 173 168 160 172 168 172 167 155 154 152 159 161 156 168 161 166 168 156 154 154 154 147 150 153 150 149 152 150 148 152 145 148 151 141 144 148 137 133 117 127 122 152 159 145 127 106 127 142 152 157 136 137 140 134 105 136 135 105 157 192 186 312 10 122 34 30 42 96 341
158 160 145 150 145 136 138 132 104 115 126 165 220 266 332 227 157 160 171 189 201 231 227 225 234 238 245 243 211 170 163 174 170 172 171 160 155 156 159 166 157 166 162 170 170 149 154 152 150 146 152 152 149 152 150 149 152 149 145 137 120 137 127 133 139 106 116 119 93 111 126 122 122 111 135 153 162 159 150 156 171 160 216 257 122 170 183 175 219 307 106 38 29 352 25 81 45
182 153 158 138 133 137 139 130 114 125 124 181 205 196 215 254 146 159 182 204 210 209 212 217 214 215 230 226 242 192 167 174 173 170 171 162 155 160 158 162 162 170 163 170 154 148 151 153 153 150 158 157 154 156 154 146 146 136 139 144 138 137 121 111 114 122 126 124 118 118 114 127 143 142 163 152 153 164 170 168 185 184 207 199 169 186 208 237 251 248 152 129 109 64 358 34 348
141 155 133 115 100 71 34 62 100 83 340 224 194 190 195 214 214 187 178 209 201 195 204 210 207 208 223 229 208 240 185 173 175 169 169 160 154 161 155 167 173 168 159 163 145 152 152 155 158 156 161 158 156 160 158 149 150 146 147 150 147 144 135 132 126 110 119 119 125 135 138 133 153 165 175 168 159 180 162 172 184 221 145 94 88 139 136 215 244 111 93 67 59 86 325 356 332
137 148 143 92 2 11 38 41 25 270 201 357 231 198 205 221 248 207 215 203 196 192 198 195 196 200 210 214 215 215 213 172 176 169 166 161 154 162 159 173 175 167 158 166 147 151 152 156 158 157 154 157 158 159 156 152 153 151 153 148 148 150 146 142 145 149 151 152 151 154 153 135 143 156 141 178 170 185 161 175 166 98 62 86 43 137 108 114 92 94 101 119 89 2 346 308 297
150 125 139 117 110 314 36 352 131 250 196 224 260 224 242 246 246 215 215 214 193 202 206 197 192 193 200 211 209 206 222 178 172 177 167 167 161 163 164 173 179 167 161 162 148 151 153 157 159 159 160 158 159 159 161 156 151 153 148 144 150 146 143 150 154 154 151 155 153 148 149 157 160 138 226 181 201 177 160 149 116 134 107 171 142 85 84 73 73 79 67 114 175 293 282 262 298
139 162 184 161 126 202 144 189 201 164 226 111 7 178 225 334 285 190 206 211 213 200 206 207 194 194 196 201 205 205 214 188 176 179 178 168 169 164 164 173 174 167 160 150 149 148 153 160 159 163 164 164 159 164 166 161 155 153 147 145 152 139 145 153 155 160 158 155 162 161 161 162 170 179 180 212 225 158 151 154 151 160 156 170 149 159 152 145 137 129 84 235 252 263 285 292 274
149 170 183 179 179 161 162 166 156 154 203 189 103 156 215 174 227 345 264 286 208 195 194 196 195 192 194 197 200 205 208 201 177 178 182 170 170 163 164 170 170 166 161 150 155 151 154 158 160 165 161 166 163 166 167 166 153 155 151 151 150 146 151 158 162 179 160 151 169 172 169 159 171 189 175 199 236 150 163 159 164 166 171 161 182 147 179 169 172 151 196 215 271 220 269 275 271
185 169 156 212 208 132 137 182 139 166 184 138 166 226 144 220 284 296 277 285 242 177 187 180 186 185 184 189 195 203 205 204 184 181 178 171 168 160 162 167 164 163 157 152 154 154 154 158 162 167 166 166 164 167 171 170 157 154 153 156 159 164 161 167 177 178 180 170 173 173 179 162 159 165 179 167 202 164 164 165 157 174 178 177 186 191 205 204 183 188 181 155 290 275 244 262 272
206 171 203 213 151 139 92 59 146 128 57 182 130 285 242 309 274 257 284 296 285 156 184 179 178 182 184 191 192 196 200 200 188 185 176 170 167 164 162 167 162 162 157 149 154 156 154 157 161 167 166 165 165 167 175 167 163 153 165 167 160 167 169 172 186 195 192 175 172 178 170 180 151 155 177 163 167 189 169 177 174 176 183 182 187 200 203 167 192 177 200 204 244 292 310 274 272
197 213 208 235 78 64 129 145 226 203 186 249 355 237 190 114 295 219 231 264 274 333 201 179 174 179 186 193 192 193 198 196 188 182 172 169 164 167 161 163 162 161 160 145 154 157 155 158 161 164 166 167 165 169 170 174 168 161 167 174 172 174 179 184 186 192 194 175 170 172 161 162 184 174 182 183 166 181 180 185 174 171 189 185 196 193 185 182 186 219 217 215 228 219 284 309 298
174 205 141 179 152 167 354 108 172 189 194 25 323 292 284 221 250 246 212 223 234 237 274 173 171 178 186 189 192 193 197 187 178 169 168 168 162 165 160 161 163 151 160 148 154 153 150 158 159 163 167 168 168 170 168 172 175 174 173 175 180 179 184 186 192 185 180 183 175 179 166 176 182 182 181 162 158 165 177 181 178 168 181 196 198 186 188 179 189 203 201 216 254 236 228 248 276
261 314 225 138 148 132 136 175 137 125 164 135 301 35 261 227 234 215 219 210 204 207 243 220 180 179 177 183 188 191 194 185 173 97 41 34 153 159 161 161 161 152 150 151 154 153 157 158 159 162 162 163 168 178 169 171 179 183 178 175 183 182 186 191 182 180 180 181 172 177 173 162 180 186 174 176 172 179 174 180 190 180 188 193 187 183 183 189 188 189 196 209 236 210 211 243 267
238 291 304 146 113 109 115 208 148 135 153 131 173 256 252 241 228 218 214 201 201 193 197 269 212 179 184 181 184 186 164 70 78 132 103 67 69 28 18 10 138 116 132 150 151 157 157 157 159 163 168 172 172 181 170 173 177 191 171 180 179 182 191 193 187 173 177 177 193 193 184 178 168 178 179 175 184 187 186 199 193 186 186 189 189 188 188 189 200 198 201 207 195 189 222 256 260
233 179 245 198 128 122 124 269 203 130 111 157 151 229 260 272 124 243 172 178 198 184 165 168 341 242 180 182 180 111 66 85 107 127 133 87 64 80 97 81 42 70 57 22 116 148 154 156 160 166 172 182 176 180 165 173 176 191 176 179 180 179 188 183 181 183 175 178 186 198 213 188 182 178 176 180 188 194 194 195 203 189 179 183 182 187 191 184 193 191 215 206 184 197 207 233 249